Location: Peterborough
(44.3091°N, 78.3197°W)
Time: 05:12:51
(UTC-04:00)

Tiros 1 despin weight - Pass Details

Date: 26 March 2023
Orbit: 586 x 632 km, 48.2° (Epoch: 08 June)

Event Time Altitude Azimuth Distance (km) Brightness Sun altitude
Rises 02:56:39 0° 292° (WNW) 2,839 - -38.7°
Reaches altitude 10° 02:58:56 10° 290° (WNW) 1,942 - -38.5°
Maximum altitude 03:03:22 69° 207° (SSW) 651 - -38.0°
Drops below altitude 10° 03:07:51 10° 125° (SE) 1,966 - -37.6°
Sets 03:10:10 0° 123° (ESE) 2,877 - -37.4°
